Year,Month,Day,Hour,Minute,Value (Times are PST for temperature in C)
2008,05,01,00,00,5.30
2008,05,01,00,01,5.30
2008,05,01,00,02,5.30
2008,05,01,00,03,5.30
2008,05,01,00,04,5.30
2008,05,01,00,05,5.30
2008,05,01,00,06,5.30
2008,05,01,00,07,5.30
2008,05,01,00,08,5.30
2008,05,01,00,09,5.30
2008,05,01,00,10,5.40
2008,05,01,00,11,5.40
2008,05,01,00,12,5.40
2008,05,01,00,13,5.40
2008,05,01,00,14,5.40
2008,05,01,00,15,5.40
2008,05,01,00,16,5.40
2008,05,01,00,17,5.40
2008,05,01,00,18,5.40
2008,05,01,00,19,5.40
2008,05,01,00,20,5.30
2008,05,01,00,21,5.30
2008,05,01,00,22,5.30
2008,05,01,00,23,5.30
2008,05,01,00,24,5.30
2008,05,01,00,25,5.30
2008,05,01,00,26,5.30
2008,05,01,00,27,5.30
2008,05,01,00,28,5.30
2008,05,01,00,29,5.30
2008,05,01,00,30,5.30
2008,05,01,00,31,5.30
2008,05,01,00,32,5.30
2008,05,01,00,33,5.30
2008,05,01,00,34,5.30
2008,05,01,00,35,5.30
2008,05,01,00,36,5.30
2008,05,01,00,37,5.30
2008,05,01,00,38,5.30
2008,05,01,00,39,5.30
2008,05,01,00,40,5.30
2008,05,01,00,41,5.30
2008,05,01,00,42,5.30
2008,05,01,00,43,5.30
2008,05,01,00,44,5.30
2008,05,01,00,45,5.30
2008,05,01,00,46,5.30
2008,05,01,00,47,5.30
2008,05,01,00,48,5.30
2008,05,01,00,49,5.30
2008,05,01,00,50,5.30
2008,05,01,00,51,5.30
2008,05,01,00,52,5.20
2008,05,01,00,53,5.20
2008,05,01,00,54,5.20
2008,05,01,00,55,5.20
2008,05,01,00,56,5.20
2008,05,01,00,57,5.20
2008,05,01,00,58,5.20
2008,05,01,00,59,5.20
2008,05,01,01,00,5.20
2008,05,01,01,01,5.20
2008,05,01,01,02,5.20
2008,05,01,01,03,5.20
2008,05,01,01,04,5.30
2008,05,01,01,05,5.30
2008,05,01,01,06,5.30
2008,05,01,01,07,5.30
2008,05,01,01,08,5.20
2008,05,01,01,09,5.20
2008,05,01,01,10,5.20
2008,05,01,01,11,5.20
2008,05,01,01,12,5.20
2008,05,01,01,13,5.20
2008,05,01,01,14,5.20
2008,05,01,01,15,5.20
2008,05,01,01,16,5.20
2008,05,01,01,17,5.20
2008,05,01,01,18,5.20
2008,05,01,01,19,5.20
2008,05,01,01,20,5.20
2008,05,01,01,21,5.20
2008,05,01,01,22,5.20
2008,05,01,01,23,5.20
2008,05,01,01,24,5.20
2008,05,01,01,25,5.20
2008,05,01,01,26,5.20
2008,05,01,01,27,5.10
2008,05,01,01,28,5.10
2008,05,01,01,29,5.10
2008,05,01,01,30,5.10
2008,05,01,01,31,5.10
2008,05,01,01,32,5.10
2008,05,01,01,33,5.10
2008,05,01,01,34,5.10
2008,05,01,01,35,5.20
2008,05,01,01,36,5.20
2008,05,01,01,37,5.20
2008,05,01,01,38,5.20
2008,05,01,01,39,5.20
2008,05,01,01,40,5.20
2008,05,01,01,41,5.20
2008,05,01,01,42,5.20
2008,05,01,01,43,5.20
2008,05,01,01,44,5.20
2008,05,01,01,45,5.20
2008,05,01,01,46,5.20
2008,05,01,01,47,5.20
2008,05,01,01,48,5.20
2008,05,01,01,49,5.20
2008,05,01,01,50,5.20
2008,05,01,01,51,5.20
2008,05,01,01,52,5.20
2008,05,01,01,53,5.20
2008,05,01,01,54,5.20
2008,05,01,01,55,5.20
2008,05,01,01,56,5.20
2008,05,01,01,57,5.20
2008,05,01,01,58,5.20
2008,05,01,01,59,5.20
2008,05,01,02,00,5.30
2008,05,01,02,01,5.30
2008,05,01,02,02,5.30
2008,05,01,02,03,5.30
2008,05,01,02,04,5.30
2008,05,01,02,05,5.30
2008,05,01,02,06,5.30
2008,05,01,02,07,5.30
2008,05,01,02,08,5.30
2008,05,01,02,09,5.30
2008,05,01,02,10,5.30
2008,05,01,02,11,5.30
2008,05,01,02,12,5.30
2008,05,01,02,13,5.30
2008,05,01,02,14,5.30
2008,05,01,02,15,5.30
2008,05,01,02,16,5.30
2008,05,01,02,17,5.30
2008,05,01,02,18,5.30
2008,05,01,02,19,5.30
2008,05,01,02,20,5.30
2008,05,01,02,21,5.30
2008,05,01,02,22,5.30
2008,05,01,02,23,5.30
2008,05,01,02,24,5.30
2008,05,01,02,25,5.30
2008,05,01,02,26,5.30
2008,05,01,02,27,5.30
2008,05,01,02,28,5.30
2008,05,01,02,29,5.30
2008,05,01,02,30,5.30
2008,05,01,02,31,5.30
2008,05,01,02,32,5.20
2008,05,01,02,33,5.20
2008,05,01,02,34,5.20
2008,05,01,02,35,5.20
2008,05,01,02,36,5.20
2008,05,01,02,37,5.20
2008,05,01,02,38,5.20
2008,05,01,02,39,5.10
2008,05,01,02,40,5.10
2008,05,01,02,41,5.10
2008,05,01,02,42,5.10
2008,05,01,02,43,5.10
2008,05,01,02,44,5.10
2008,05,01,02,45,5.10
2008,05,01,02,46,5.10
2008,05,01,02,47,5.10
2008,05,01,02,48,5.10
2008,05,01,02,49,5.00
2008,05,01,02,50,4.90
2008,05,01,02,51,4.90
2008,05,01,02,52,4.90
2008,05,01,02,53,4.90
2008,05,01,02,54,4.90
2008,05,01,02,55,4.90
2008,05,01,02,56,4.90
2008,05,01,02,57,4.90
2008,05,01,02,58,4.90
2008,05,01,02,59,4.90
2008,05,01,03,00,4.90
2008,05,01,03,01,4.90
2008,05,01,03,02,4.90
2008,05,01,03,03,4.80
2008,05,01,03,04,4.80
2008,05,01,03,05,4.80
2008,05,01,03,06,4.80
2008,05,01,03,07,4.80
2008,05,01,03,08,4.80
2008,05,01,03,09,4.80
2008,05,01,03,10,4.70
2008,05,01,03,11,4.70
2008,05,01,03,12,4.70
2008,05,01,03,13,4.70
2008,05,01,03,14,4.60
2008,05,01,03,15,4.60
2008,05,01,03,16,4.60
2008,05,01,03,17,4.60
2008,05,01,03,18,4.60
2008,05,01,03,19,4.60
2008,05,01,03,20,4.60
2008,05,01,03,21,4.60
2008,05,01,03,22,4.50
2008,05,01,03,23,4.50
2008,05,01,03,24,4.50
2008,05,01,03,25,4.40
2008,05,01,03,26,4.40
2008,05,01,03,27,4.40
2008,05,01,03,28,4.30
2008,05,01,03,29,4.30
2008,05,01,03,30,4.30
2008,05,01,03,31,4.20
2008,05,01,03,32,4.20
2008,05,01,03,33,4.20
2008,05,01,03,34,4.20
2008,05,01,03,35,4.20
2008,05,01,03,36,4.20
2008,05,01,03,37,4.20
2008,05,01,03,38,4.10
2008,05,01,03,39,4.10
2008,05,01,03,40,4.00
2008,05,01,03,41,4.00
2008,05,01,03,42,4.00
2008,05,01,03,43,3.90
2008,05,01,03,44,3.90
2008,05,01,03,45,3.90
2008,05,01,03,46,3.80
2008,05,01,03,47,3.80
2008,05,01,03,48,3.80
2008,05,01,03,49,3.80
2008,05,01,03,50,3.80
2008,05,01,03,51,3.80
2008,05,01,03,52,3.80
2008,05,01,03,53,3.80
2008,05,01,03,54,3.80
2008,05,01,03,55,3.80
2008,05,01,03,56,3.80
2008,05,01,03,57,3.80
2008,05,01,03,58,3.80
2008,05,01,03,59,3.80
2008,05,01,04,00,3.80
2008,05,01,04,01,3.80
2008,05,01,04,02,3.80
2008,05,01,04,03,3.80
2008,05,01,04,04,3.80
2008,05,01,04,05,3.80
2008,05,01,04,06,3.80
2008,05,01,04,07,3.80
2008,05,01,04,08,3.80
2008,05,01,04,09,3.80
2008,05,01,04,10,3.80
2008,05,01,04,11,3.80
2008,05,01,04,12,3.80
2008,05,01,04,13,3.80
2008,05,01,04,14,3.80
2008,05,01,04,15,3.80
2008,05,01,04,16,3.80
2008,05,01,04,17,3.80
2008,05,01,04,18,3.80
2008,05,01,04,19,3.80
2008,05,01,04,20,3.80
2008,05,01,04,21,3.80
2008,05,01,04,22,3.80
2008,05,01,04,23,3.80
2008,05,01,04,24,3.80
2008,05,01,04,25,3.80
2008,05,01,04,26,3.80
2008,05,01,04,27,3.80
2008,05,01,04,28,3.80
2008,05,01,04,29,3.80
2008,05,01,04,30,3.80
2008,05,01,04,31,3.80
2008,05,01,04,32,3.80
2008,05,01,04,33,3.80
2008,05,01,04,34,3.80
2008,05,01,04,35,3.80
2008,05,01,04,36,3.80
2008,05,01,04,37,3.80
2008,05,01,04,38,3.80
2008,05,01,04,39,3.80
2008,05,01,04,40,3.80
2008,05,01,04,41,3.70
2008,05,01,04,42,3.70
2008,05,01,04,43,3.70
2008,05,01,04,44,3.70
2008,05,01,04,45,3.70
2008,05,01,04,46,3.70
2008,05,01,04,47,3.60
2008,05,01,04,48,3.60
2008,05,01,04,49,3.60
2008,05,01,04,50,3.60
2008,05,01,04,51,3.60
2008,05,01,04,52,3.60
2008,05,01,04,53,3.60
2008,05,01,04,54,3.60
2008,05,01,04,55,3.60
2008,05,01,04,56,3.50
2008,05,01,04,57,3.50
2008,05,01,04,58,3.60
2008,05,01,04,59,3.50
2008,05,01,05,00,3.50
2008,05,01,05,01,3.50
2008,05,01,05,02,3.50
2008,05,01,05,03,3.50
2008,05,01,05,04,3.50
2008,05,01,05,05,3.50
2008,05,01,05,06,3.50
2008,05,01,05,07,3.40
2008,05,01,05,08,3.40
2008,05,01,05,09,3.40
2008,05,01,05,10,3.40
2008,05,01,05,11,3.30
2008,05,01,05,12,3.30
2008,05,01,05,13,3.30
2008,05,01,05,14,3.30
2008,05,01,05,15,3.30
2008,05,01,05,16,3.30
2008,05,01,05,17,3.30
2008,05,01,05,18,3.30
2008,05,01,05,19,3.30
2008,05,01,05,20,3.30
2008,05,01,05,21,3.30
2008,05,01,05,22,3.30
2008,05,01,05,23,3.30
2008,05,01,05,24,3.30
2008,05,01,05,25,3.30
2008,05,01,05,26,3.30
2008,05,01,05,27,3.30
2008,05,01,05,28,3.30
2008,05,01,05,29,3.30
2008,05,01,05,30,3.30
2008,05,01,05,31,3.30
2008,05,01,05,32,3.30
2008,05,01,05,33,3.30
2008,05,01,05,34,3.30
2008,05,01,05,35,3.30
2008,05,01,05,36,3.30
2008,05,01,05,37,3.30
2008,05,01,05,38,3.30
2008,05,01,05,39,3.30
2008,05,01,05,40,3.30
2008,05,01,05,41,3.30
2008,05,01,05,42,3.30
2008,05,01,05,43,3.30
2008,05,01,05,44,3.30
2008,05,01,05,45,3.30
2008,05,01,05,46,3.30
2008,05,01,05,47,3.30
2008,05,01,05,48,3.40
2008,05,01,05,49,3.40
2008,05,01,05,50,3.40
2008,05,01,05,51,3.40
2008,05,01,05,52,3.40
2008,05,01,05,53,3.40
2008,05,01,05,54,3.40
2008,05,01,05,55,3.40
2008,05,01,05,56,3.40
2008,05,01,05,57,3.40
2008,05,01,05,58,3.40
2008,05,01,05,59,3.40
2008,05,01,06,00,3.40
2008,05,01,06,01,3.40
2008,05,01,06,02,3.40
2008,05,01,06,03,3.40
2008,05,01,06,04,3.40
2008,05,01,06,05,3.40
2008,05,01,06,06,3.40
2008,05,01,06,07,3.40
2008,05,01,06,08,3.40
2008,05,01,06,09,3.40
2008,05,01,06,10,3.40
2008,05,01,06,11,3.40
2008,05,01,06,12,3.40
2008,05,01,06,13,3.40
2008,05,01,06,14,3.40
2008,05,01,06,15,3.40
2008,05,01,06,16,3.40
2008,05,01,06,17,3.40
2008,05,01,06,18,3.40
2008,05,01,06,19,3.40
2008,05,01,06,20,3.40
2008,05,01,06,21,3.50
2008,05,01,06,22,3.50
2008,05,01,06,23,3.50
2008,05,01,06,24,3.50
2008,05,01,06,25,3.50
2008,05,01,06,26,3.50
2008,05,01,06,27,3.50
2008,05,01,06,28,3.50
2008,05,01,06,29,3.50
2008,05,01,06,30,3.50
2008,05,01,06,31,3.50
2008,05,01,06,32,3.50
2008,05,01,06,33,3.50
2008,05,01,06,34,3.50
2008,05,01,06,35,3.50
2008,05,01,06,36,3.60
2008,05,01,06,37,3.60
2008,05,01,06,38,3.60
2008,05,01,06,39,3.60
2008,05,01,06,40,3.70
2008,05,01,06,41,3.70
2008,05,01,06,42,3.80
2008,05,01,06,43,3.80
2008,05,01,06,44,3.80
2008,05,01,06,45,3.80
2008,05,01,06,46,3.80
2008,05,01,06,47,3.80
2008,05,01,06,48,3.80
2008,05,01,06,49,3.80
2008,05,01,06,50,3.90
2008,05,01,06,51,3.90
2008,05,01,06,52,4.00
2008,05,01,06,53,4.00
2008,05,01,06,54,4.10
2008,05,01,06,55,4.10
2008,05,01,06,56,4.10
2008,05,01,06,57,4.10
2008,05,01,06,58,4.10
2008,05,01,06,59,4.20
2008,05,01,07,00,4.20
2008,05,01,07,01,4.20
2008,05,01,07,02,4.20
2008,05,01,07,03,4.20
2008,05,01,07,04,4.20
2008,05,01,07,05,4.20
2008,05,01,07,06,4.30
2008,05,01,07,07,4.30
2008,05,01,07,08,4.40
2008,05,01,07,09,4.40
2008,05,01,07,10,4.50
2008,05,01,07,11,4.60
2008,05,01,07,12,4.70
2008,05,01,07,13,4.80
2008,05,01,07,14,4.90
2008,05,01,07,15,5.00
2008,05,01,07,16,5.10
2008,05,01,07,17,5.20
2008,05,01,07,18,5.30
2008,05,01,07,19,5.40
2008,05,01,07,20,5.50
2008,05,01,07,21,5.60
2008,05,01,07,22,5.70
2008,05,01,07,23,5.80
2008,05,01,07,24,5.80
2008,05,01,07,25,5.90
2008,05,01,07,26,6.00
2008,05,01,07,27,6.10
2008,05,01,07,28,6.20
2008,05,01,07,29,6.30
2008,05,01,07,30,6.40
2008,05,01,07,31,6.40
2008,05,01,07,32,6.60
2008,05,01,07,33,6.70
2008,05,01,07,34,6.80
2008,05,01,07,35,6.80
2008,05,01,07,36,7.00
2008,05,01,07,37,7.10
2008,05,01,07,38,7.10
2008,05,01,07,39,7.30
2008,05,01,07,40,7.30
2008,05,01,07,41,7.30
2008,05,01,07,42,7.40
2008,05,01,07,43,7.40
2008,05,01,07,44,7.50
2008,05,01,07,45,7.50
2008,05,01,07,46,7.60
2008,05,01,07,47,7.50
2008,05,01,07,48,7.50
2008,05,01,07,49,7.50
2008,05,01,07,50,7.40
2008,05,01,07,51,7.30
2008,05,01,07,52,7.30
2008,05,01,07,53,7.30
2008,05,01,07,54,7.30
2008,05,01,07,55,7.30
2008,05,01,07,56,7.30
2008,05,01,07,57,7.30
2008,05,01,07,58,7.30
2008,05,01,07,59,7.30
2008,05,01,08,00,7.30
2008,05,01,08,01,7.30
2008,05,01,08,02,7.30
2008,05,01,08,03,7.30
2008,05,01,08,04,7.30
2008,05,01,08,05,7.30
2008,05,01,08,06,7.30
2008,05,01,08,07,7.30
2008,05,01,08,08,7.30
2008,05,01,08,09,7.30
2008,05,01,08,10,7.30
2008,05,01,08,11,7.30
2008,05,01,08,12,7.30
2008,05,01,08,13,7.30
2008,05,01,08,14,7.30
2008,05,01,08,15,7.30
2008,05,01,08,16,7.30
2008,05,01,08,17,7.30
2008,05,01,08,18,7.30
2008,05,01,08,19,7.30
2008,05,01,08,20,7.30
2008,05,01,08,21,7.30
2008,05,01,08,22,7.30
2008,05,01,08,23,7.30
2008,05,01,08,24,7.30
2008,05,01,08,25,7.30
2008,05,01,08,26,7.30
2008,05,01,08,27,7.30
2008,05,01,08,28,7.30
2008,05,01,08,29,7.30
2008,05,01,08,30,7.40
2008,05,01,08,31,7.40
2008,05,01,08,32,7.40
2008,05,01,08,33,7.40
2008,05,01,08,34,7.30
2008,05,01,08,35,7.30
2008,05,01,08,36,7.30
2008,05,01,08,37,7.30
2008,05,01,08,38,7.30
2008,05,01,08,39,7.40
2008,05,01,08,40,7.40
2008,05,01,08,41,7.40
2008,05,01,08,42,7.40
2008,05,01,08,43,7.50
2008,05,01,08,44,7.50
2008,05,01,08,45,7.50
2008,05,01,08,46,7.50
2008,05,01,08,47,7.50
2008,05,01,08,48,7.60
2008,05,01,08,49,7.60
2008,05,01,08,50,7.70
2008,05,01,08,51,7.60
2008,05,01,08,52,7.70
2008,05,01,08,53,7.70
2008,05,01,08,54,7.70
2008,05,01,08,55,7.70
2008,05,01,08,56,7.80
2008,05,01,08,57,7.80
2008,05,01,08,58,7.90
2008,05,01,08,59,7.90
2008,05,01,09,00,7.90
2008,05,01,09,01,8.00
2008,05,01,09,02,8.00
2008,05,01,09,03,8.10
2008,05,01,09,04,8.20
2008,05,01,09,05,8.20
2008,05,01,09,06,8.20
2008,05,01,09,07,8.30
2008,05,01,09,08,8.40
2008,05,01,09,09,8.40
2008,05,01,09,10,8.50
2008,05,01,09,11,8.60
2008,05,01,09,12,8.60
2008,05,01,09,13,8.50
2008,05,01,09,14,8.50
2008,05,01,09,15,8.50
2008,05,01,09,16,8.50
2008,05,01,09,17,8.60
2008,05,01,09,18,8.60
2008,05,01,09,19,8.60
2008,05,01,09,20,8.60
2008,05,01,09,21,8.60
2008,05,01,09,22,8.60
2008,05,01,09,23,8.50
2008,05,01,09,24,8.40
2008,05,01,09,25,8.40
2008,05,01,09,26,8.40
2008,05,01,09,27,8.40
2008,05,01,09,28,8.40
2008,05,01,09,29,8.40
2008,05,01,09,30,8.40
2008,05,01,09,31,8.40
2008,05,01,09,32,8.40
2008,05,01,09,33,8.40
2008,05,01,09,34,8.40
2008,05,01,09,35,8.40
2008,05,01,09,36,8.40
2008,05,01,09,37,8.40
2008,05,01,09,38,8.40
2008,05,01,09,39,8.30
2008,05,01,09,40,8.30
2008,05,01,09,41,8.20
2008,05,01,09,42,8.20
2008,05,01,09,43,8.20
2008,05,01,09,44,8.20
2008,05,01,09,45,8.10
2008,05,01,09,46,8.00
2008,05,01,09,47,7.90
2008,05,01,09,48,7.90
2008,05,01,09,49,7.90
2008,05,01,09,50,7.90
2008,05,01,09,51,7.90
2008,05,01,09,52,7.90
2008,05,01,09,53,7.90
2008,05,01,09,54,7.90
2008,05,01,09,55,7.90
2008,05,01,09,56,7.90
2008,05,01,09,57,7.90
2008,05,01,09,58,7.90
2008,05,01,09,59,7.90
2008,05,01,10,00,7.90
2008,05,01,10,01,7.90
2008,05,01,10,02,7.90
2008,05,01,10,03,7.90
2008,05,01,10,04,8.00
2008,05,01,10,05,8.00
2008,05,01,10,06,8.00
2008,05,01,10,07,8.10
2008,05,01,10,08,8.10
2008,05,01,10,09,8.10
2008,05,01,10,10,8.20
2008,05,01,10,11,8.20
2008,05,01,10,12,8.20
2008,05,01,10,13,8.20
2008,05,01,10,14,8.20
2008,05,01,10,15,8.20
2008,05,01,10,16,8.20
2008,05,01,10,17,8.20
2008,05,01,10,18,8.20
2008,05,01,10,19,8.20
2008,05,01,10,20,8.10
2008,05,01,10,21,8.10
2008,05,01,10,22,8.10
2008,05,01,10,23,8.10
2008,05,01,10,24,8.20
2008,05,01,10,25,8.20
2008,05,01,10,26,8.20
2008,05,01,10,27,8.30
2008,05,01,10,28,8.30
2008,05,01,10,29,8.30
2008,05,01,10,30,8.40
2008,05,01,10,31,8.50
2008,05,01,10,32,8.50
2008,05,01,10,33,8.60
2008,05,01,10,34,8.60
2008,05,01,10,35,8.70
2008,05,01,10,36,8.70
2008,05,01,10,37,8.80
2008,05,01,10,38,8.80
2008,05,01,10,39,8.90
2008,05,01,10,40,8.90
2008,05,01,10,41,8.90
2008,05,01,10,42,8.90
2008,05,01,10,43,9.00
2008,05,01,10,44,9.00
2008,05,01,10,45,9.00
2008,05,01,10,46,9.20
2008,05,01,10,47,9.10
2008,05,01,10,48,9.00
2008,05,01,10,49,9.00
2008,05,01,10,50,9.10
2008,05,01,10,51,9.10
2008,05,01,10,52,9.10
2008,05,01,10,53,9.10
2008,05,01,10,54,9.10
2008,05,01,10,55,9.20
2008,05,01,10,56,9.20
2008,05,01,10,57,9.30
2008,05,01,10,58,9.40
2008,05,01,10,59,9.40
2008,05,01,11,00,9.40
2008,05,01,11,01,9.40
2008,05,01,11,02,9.50
2008,05,01,11,03,9.50
2008,05,01,11,04,9.40
2008,05,01,11,05,9.40
2008,05,01,11,06,9.40
2008,05,01,11,07,9.50
2008,05,01,11,08,9.40
2008,05,01,11,09,9.40
2008,05,01,11,10,9.30
2008,05,01,11,11,9.20
2008,05,01,11,12,9.20
2008,05,01,11,13,9.30
2008,05,01,11,14,9.20
2008,05,01,11,15,9.20
2008,05,01,11,16,9.20
2008,05,01,11,17,9.20
2008,05,01,11,18,9.30
2008,05,01,11,19,9.40
2008,05,01,11,20,9.50
2008,05,01,11,21,9.50
2008,05,01,11,22,9.50
2008,05,01,11,23,9.60
2008,05,01,11,24,9.60
2008,05,01,11,25,9.70
2008,05,01,11,26,9.60
2008,05,01,11,27,9.50
2008,05,01,11,28,9.50
2008,05,01,11,29,9.50
2008,05,01,11,30,9.50
2008,05,01,11,31,9.60
2008,05,01,11,32,9.70
2008,05,01,11,33,9.70
2008,05,01,11,34,9.70
2008,05,01,11,35,9.70
2008,05,01,11,36,9.70
2008,05,01,11,37,9.70
2008,05,01,11,38,9.80
2008,05,01,11,39,9.80
2008,05,01,11,40,9.90
2008,05,01,11,41,9.90
2008,05,01,11,42,9.80
2008,05,01,11,43,9.70
2008,05,01,11,44,9.70
2008,05,01,11,45,9.70
2008,05,01,11,46,9.70
2008,05,01,11,47,9.80
2008,05,01,11,48,9.80
2008,05,01,11,49,9.70
2008,05,01,11,50,9.70
2008,05,01,11,51,9.70
2008,05,01,11,52,9.80
2008,05,01,11,53,9.80
2008,05,01,11,54,9.70
2008,05,01,11,55,9.80
2008,05,01,11,56,9.90
2008,05,01,11,57,10.00
2008,05,01,11,58,9.90
2008,05,01,11,59,9.90
2008,05,01,12,00,9.90
2008,05,01,12,01,9.80
2008,05,01,12,02,9.80
2008,05,01,12,03,9.70
2008,05,01,12,04,9.60
2008,05,01,12,05,9.50
2008,05,01,12,06,9.50
2008,05,01,12,07,9.40
2008,05,01,12,08,9.40
2008,05,01,12,09,9.30
2008,05,01,12,10,9.30
2008,05,01,12,11,9.20
2008,05,01,12,12,9.20
2008,05,01,12,13,9.20
2008,05,01,12,14,9.20
2008,05,01,12,15,9.20
2008,05,01,12,16,9.20
2008,05,01,12,17,9.30
2008,05,01,12,18,9.30
2008,05,01,12,19,9.40
2008,05,01,12,20,9.40
2008,05,01,12,21,9.40
2008,05,01,12,22,9.40
2008,05,01,12,23,9.50
2008,05,01,12,24,9.50
2008,05,01,12,25,9.60
2008,05,01,12,26,9.70
2008,05,01,12,27,9.90
2008,05,01,12,28,9.90
2008,05,01,12,29,10.00
2008,05,01,12,30,10.00
2008,05,01,12,31,9.90
2008,05,01,12,32,9.90
2008,05,01,12,33,9.80
2008,05,01,12,34,9.70
2008,05,01,12,35,9.70
2008,05,01,12,36,9.80
2008,05,01,12,37,9.70
2008,05,01,12,38,9.80
2008,05,01,12,39,9.80
2008,05,01,12,40,9.80
2008,05,01,12,41,9.80
2008,05,01,12,42,9.70
2008,05,01,12,43,9.80
2008,05,01,12,44,9.90
2008,05,01,12,45,10.00
2008,05,01,12,46,10.10
2008,05,01,12,47,10.10
2008,05,01,12,48,10.10
2008,05,01,12,49,10.10
2008,05,01,12,50,10.10
2008,05,01,12,51,10.10
2008,05,01,12,52,10.00
2008,05,01,12,53,9.90
2008,05,01,12,54,9.80
2008,05,01,12,55,9.70
2008,05,01,12,56,9.60
2008,05,01,12,57,9.60
2008,05,01,12,58,9.70
2008,05,01,12,59,9.70
2008,05,01,13,00,9.70
2008,05,01,13,01,9.70
2008,05,01,13,02,9.70
2008,05,01,13,03,9.70
2008,05,01,13,04,9.70
2008,05,01,13,05,9.70
2008,05,01,13,06,9.70
2008,05,01,13,07,9.70
2008,05,01,13,08,9.70
2008,05,01,13,09,9.70
2008,05,01,13,10,9.70
2008,05,01,13,11,9.80
2008,05,01,13,12,9.80
2008,05,01,13,13,9.80
2008,05,01,13,14,9.80
2008,05,01,13,15,9.70
2008,05,01,13,16,9.70
2008,05,01,13,17,9.80
2008,05,01,13,18,9.80
2008,05,01,13,19,9.70
2008,05,01,13,20,9.80
2008,05,01,13,21,9.80
2008,05,01,13,22,9.90
2008,05,01,13,23,9.80
2008,05,01,13,24,9.80
2008,05,01,13,25,9.90
2008,05,01,13,26,10.10
2008,05,01,13,27,10.20
2008,05,01,13,28,10.20
2008,05,01,13,29,10.20
2008,05,01,13,30,10.40
2008,05,01,13,31,10.50
2008,05,01,13,32,10.60
2008,05,01,13,33,10.60
2008,05,01,13,34,10.60
2008,05,01,13,35,10.70
2008,05,01,13,36,10.60
2008,05,01,13,37,10.60
2008,05,01,13,38,10.50
2008,05,01,13,39,10.40
2008,05,01,13,40,10.30
2008,05,01,13,41,10.30
2008,05,01,13,42,10.40
2008,05,01,13,43,10.40
2008,05,01,13,44,10.40
2008,05,01,13,45,10.40
2008,05,01,13,46,10.40
2008,05,01,13,47,10.50
2008,05,01,13,48,10.60
2008,05,01,13,49,10.60
2008,05,01,13,50,10.60
2008,05,01,13,51,10.70
2008,05,01,13,52,10.80
2008,05,01,13,53,10.80
2008,05,01,13,54,10.70
2008,05,01,13,55,10.60
2008,05,01,13,56,10.60
2008,05,01,13,57,10.70
2008,05,01,13,58,10.80
2008,05,01,13,59,10.80
2008,05,01,14,00,10.70
2008,05,01,14,01,10.70
2008,05,01,14,02,10.80
2008,05,01,14,03,10.70
2008,05,01,14,04,10.70
2008,05,01,14,05,10.70
2008,05,01,14,06,10.70
2008,05,01,14,07,10.60
2008,05,01,14,08,10.60
2008,05,01,14,09,10.50
2008,05,01,14,10,10.50
2008,05,01,14,11,10.60
2008,05,01,14,12,10.60
2008,05,01,14,13,10.70
2008,05,01,14,14,10.70
2008,05,01,14,15,10.80
2008,05,01,14,16,10.90
2008,05,01,14,17,10.90
2008,05,01,14,18,10.90
2008,05,01,14,19,10.90
2008,05,01,14,20,11.00
2008,05,01,14,21,11.00
2008,05,01,14,22,11.00
2008,05,01,14,23,11.10
2008,05,01,14,24,11.10
2008,05,01,14,25,11.00
2008,05,01,14,26,10.90
2008,05,01,14,27,10.70
2008,05,01,14,28,10.70
2008,05,01,14,29,10.60
2008,05,01,14,30,10.60
2008,05,01,14,31,10.60
2008,05,01,14,32,10.50
2008,05,01,14,33,10.60
2008,05,01,14,34,10.60
2008,05,01,14,35,10.60
2008,05,01,14,36,10.60
2008,05,01,14,37,10.70
2008,05,01,14,38,10.70
2008,05,01,14,39,10.70
2008,05,01,14,40,10.80
2008,05,01,14,41,10.80
2008,05,01,14,42,10.80
2008,05,01,14,43,10.80
2008,05,01,14,44,10.90
2008,05,01,14,45,10.90
2008,05,01,14,46,10.90
2008,05,01,14,47,11.00
2008,05,01,14,48,11.00
2008,05,01,14,49,11.10
2008,05,01,14,50,11.10
2008,05,01,14,51,11.20
2008,05,01,14,52,11.30
2008,05,01,14,53,11.30
2008,05,01,14,54,11.40
2008,05,01,14,55,11.50
2008,05,01,14,56,11.60
2008,05,01,14,57,11.50
2008,05,01,14,58,11.30
2008,05,01,14,59,11.30
2008,05,01,15,00,11.20
2008,05,01,15,01,11.20
2008,05,01,15,02,11.20
2008,05,01,15,03,11.10
2008,05,01,15,04,11.10
2008,05,01,15,05,11.00
2008,05,01,15,06,10.90
2008,05,01,15,07,10.80
2008,05,01,15,08,10.70
2008,05,01,15,09,10.70
2008,05,01,15,10,10.60
2008,05,01,15,11,10.60
2008,05,01,15,12,10.60
2008,05,01,15,13,10.60
2008,05,01,15,14,10.70
2008,05,01,15,15,10.80
2008,05,01,15,16,10.90
2008,05,01,15,17,11.00
2008,05,01,15,18,11.10
2008,05,01,15,19,11.10
2008,05,01,15,20,11.10
2008,05,01,15,21,11.10
2008,05,01,15,22,11.10
2008,05,01,15,23,11.10
2008,05,01,15,24,11.20
2008,05,01,15,25,11.20
2008,05,01,15,26,11.30
2008,05,01,15,27,11.30
2008,05,01,15,28,11.30
2008,05,01,15,29,11.40
2008,05,01,15,30,11.50
2008,05,01,15,31,11.60
2008,05,01,15,32,11.60
2008,05,01,15,33,11.60
2008,05,01,15,34,11.50
2008,05,01,15,35,11.40
2008,05,01,15,36,11.40
2008,05,01,15,37,11.40
2008,05,01,15,38,11.30
2008,05,01,15,39,11.30
2008,05,01,15,40,11.20
2008,05,01,15,41,11.20
2008,05,01,15,42,11.20
2008,05,01,15,43,11.10
2008,05,01,15,44,11.10
2008,05,01,15,45,11.10
2008,05,01,15,46,11.10
2008,05,01,15,47,11.10
2008,05,01,15,48,11.10
2008,05,01,15,49,11.10
2008,05,01,15,50,11.10
2008,05,01,15,51,11.10
2008,05,01,15,52,11.20
2008,05,01,15,53,11.20
2008,05,01,15,54,11.30
2008,05,01,15,55,11.30
2008,05,01,15,56,11.40
2008,05,01,15,57,11.30
2008,05,01,15,58,11.30
2008,05,01,15,59,11.40
2008,05,01,16,00,11.40
2008,05,01,16,01,11.50
2008,05,01,16,02,11.60
2008,05,01,16,03,11.60
2008,05,01,16,04,11.60
2008,05,01,16,05,11.60
2008,05,01,16,06,11.60
2008,05,01,16,07,11.60
2008,05,01,16,08,11.50
2008,05,01,16,09,11.60
2008,05,01,16,10,11.60
2008,05,01,16,11,11.60
2008,05,01,16,12,11.60
2008,05,01,16,13,11.40
2008,05,01,16,14,11.50
2008,05,01,16,15,11.60
2008,05,01,16,16,11.60
2008,05,01,16,17,11.70
2008,05,01,16,18,11.70
2008,05,01,16,19,11.60
2008,05,01,16,20,11.70
2008,05,01,16,21,11.80
2008,05,01,16,22,11.80
2008,05,01,16,23,11.80
2008,05,01,16,24,11.70
2008,05,01,16,25,11.70
2008,05,01,16,26,11.60
2008,05,01,16,27,11.60
2008,05,01,16,28,11.70
2008,05,01,16,29,11.60
2008,05,01,16,30,11.60
2008,05,01,16,31,11.60
2008,05,01,16,32,11.60
2008,05,01,16,33,11.50
2008,05,01,16,34,11.40
2008,05,01,16,35,11.50
2008,05,01,16,36,11.60
2008,05,01,16,37,11.60
2008,05,01,16,38,11.60
2008,05,01,16,39,11.80
2008,05,01,16,40,11.80
2008,05,01,16,41,11.90
2008,05,01,16,42,12.00
2008,05,01,16,43,11.90
2008,05,01,16,44,11.80
2008,05,01,16,45,11.80
2008,05,01,16,46,11.80
2008,05,01,16,47,11.80
2008,05,01,16,48,11.80
2008,05,01,16,49,11.80
2008,05,01,16,50,11.70
2008,05,01,16,51,11.70
2008,05,01,16,52,11.70
2008,05,01,16,53,11.70
2008,05,01,16,54,11.70
2008,05,01,16,55,11.60
2008,05,01,16,56,11.60
2008,05,01,16,57,11.50
2008,05,01,16,58,11.40
2008,05,01,16,59,11.40
2008,05,01,17,00,11.40
2008,05,01,17,01,11.40
2008,05,01,17,02,11.40
2008,05,01,17,03,11.40
2008,05,01,17,04,11.40
2008,05,01,17,05,11.40
2008,05,01,17,06,11.40
2008,05,01,17,07,11.40
2008,05,01,17,08,11.40
2008,05,01,17,09,11.40
2008,05,01,17,10,11.40
2008,05,01,17,11,11.30
2008,05,01,17,12,11.30
2008,05,01,17,13,11.30
2008,05,01,17,14,11.20
2008,05,01,17,15,11.20
2008,05,01,17,16,11.20
2008,05,01,17,17,11.20
2008,05,01,17,18,11.20
2008,05,01,17,19,11.20
2008,05,01,17,20,11.20
2008,05,01,17,21,11.20
2008,05,01,17,22,11.20
2008,05,01,17,23,11.20
2008,05,01,17,24,11.20
2008,05,01,17,25,11.20
2008,05,01,17,26,11.20
2008,05,01,17,27,11.20
2008,05,01,17,28,11.20
2008,05,01,17,29,11.20
2008,05,01,17,30,11.20
2008,05,01,17,31,11.20
2008,05,01,17,32,11.20
2008,05,01,17,33,11.10
2008,05,01,17,34,11.10
2008,05,01,17,35,11.10
2008,05,01,17,36,11.10
2008,05,01,17,37,11.10
2008,05,01,17,38,11.10
2008,05,01,17,39,11.10
2008,05,01,17,40,11.10
2008,05,01,17,41,11.10
2008,05,01,17,42,11.10
2008,05,01,17,43,10.90
2008,05,01,17,44,10.90
2008,05,01,17,45,10.90
2008,05,01,17,46,10.80
2008,05,01,17,47,10.80
2008,05,01,17,48,10.80
2008,05,01,17,49,10.80
2008,05,01,17,50,10.80
2008,05,01,17,51,10.90
2008,05,01,17,52,10.90
2008,05,01,17,53,10.90
2008,05,01,17,54,10.90